AD8AK Weather Reports


time (UTC)temp
F
wind
direction
speed
knots
gust
knots
rain 1hr
in
rain 24hr
in
rain mn
in
humidity
%
barometer
mb
20260504110509 51 244 1.7 2.6 0.00 0.00 0.00 69 1007.0
20260504100430 51 216 1.7 2.6 0.00 0.00 0.00 67 1007.3
20260504081824 51 135 1.7 2.6 0.00 0.00 0.00 65 1008.2
20260504081320 51 266 0.9 2.6 0.00 0.00 0.00 66 1008.1
20260504080816 52 217 1.7 2.6 0.00 0.00 0.00 65 1008.3
20260504080314 52 218 0.9 2.6 0.00 0.00 0.00 65 1008.3
20260504070241 52 159 0.9 1.7 0.00 0.00 0.00 65 1008.8
20260504060201 53 161 1.7 3.5 0.00 0.00 0.00 61 1009.8
20260504050629 53 227 0.9 2.6 0.00 0.00 0.00 59 1010.3
20260504050126 53 145 1.7 2.6 0.00 0.00 0.00 60 1010.2
20260504045623 53 229 1.7 3.5 0.00 0.00 0.00 60 1010.7
20260504045118 52 187 1.7 3.5 0.00 0.00 0.00 61 1010.4
20260504044616 52 232 1.7 2.6 0.00 0.00 0.00 62 1010.5
20260504044113 52 139 2.6 3.5 0.00 0.00 0.00 62 1010.4
20260504043610 52 141 2.6 2.6 0.00 0.00 0.00 63 1010.4
20260504043107 51 187 1.7 1.7 0.00 0.00 0.00 65 1010.4
20260504042604 52 218 1.7 2.6 0.00 0.00 0.00 64 1010.3
20260504042101 52 225 1.7 3.5 0.00 0.00 0.00 64 1010.4
20260504041556 52 134 1.7 1.7 0.00 0.00 0.00 65 1010.5
20260504041053 51 151 1.7 2.6 0.00 0.00 0.00 64 1010.5
20260504040551 51 143 1.7 2.6 0.00 0.00 0.00 65 1010.5
20260504040047 51 188 1.7 1.7 0.00 0.00 0.00 66 1010.8
20260504035544 51 230 1.7 2.6 0.00 0.00 0.00 66 1010.7
20260504035040 51 159 1.7 3.5 0.00 0.00 0.00 66 1010.9
20260504034538 51 146 1.7 1.7 0.00 0.00 0.00 67 1010.9
20260504034035 51 225 1.7 1.7 0.00 0.00 0.00 67 1011.0
20260504033533 51 142 1.7 3.5 0.00 0.00 0.00 67 1010.8
20260504033030 51 230 2.6 3.5 0.00 0.00 0.00 67 1010.9
20260504032527 51 225 1.7 2.6 0.00 0.00 0.00 68 1010.9
20260504032024 51 135 3.5 3.5 0.00 0.00 0.00 67 1011.1
20260504031521 51 146 2.6 3.5 0.00 0.00 0.00 67 1011.0
20260504031017 51 126 2.6 5.2 0.00 0.00 0.00 67 1011.2
20260504030514 51 125 2.6 3.5 0.00 0.00 0.00 67 1011.2
20260504030010 51 121 1.7 5.2 0.00 0.00 0.00 66 1011.2
20260504025507 51 226 1.7 2.6 0.00 0.00 0.00 67 1011.3
20260504025004 51 159 2.6 3.5 0.00 0.00 0.00 67 1011.2
20260504024502 51 158 1.7 3.5 0.00 0.00 0.00 67 1011.2
20260504023958 51 227 2.6 5.2 0.00 0.00 0.00 67 1011.3
20260504023455 51 213 2.6 3.5 0.00 0.00 0.00 67 1011.4
20260504022950 51 156 1.7 3.5 0.00 0.00 0.00 66 1011.4
20260504022447 51 203 1.7 3.5 0.00 0.00 0.00 67 1011.3
20260504021943 50 137 2.6 2.6 0.00 0.00 0.00 68 1011.5
20260504021441 50 137 1.7 3.5 0.00 0.00 0.00 68 1011.5
20260504020938 51 230 1.7 2.6 0.00 0.00 0.00 68 1011.6
20260504020434 51 131 1.7 3.5 0.00 0.00 0.00 68 1011.4
20260504015931 51 220 1.7 3.5 0.00 0.00 0.00 68 1011.6
20260504015427 51 240 3.5 3.5 0.00 0.00 0.00 68 1011.7
20260504014923 51 146 3.5 5.2 0.00 0.00 0.00 68 1011.4
20260504014419 51 182 2.6 5.2 0.00 0.00 0.00 68 1011.5
20260504013916 51 141 2.6 3.5 0.00 0.00 0.00 68 1011.6
20260504013415 51 150 2.6 2.6 0.00 0.00 0.00 68 1011.5
20260504012910 51 160 2.6 2.6 0.00 0.00 0.00 68 1011.5
20260504012409 51 154 1.7 2.6 0.00 0.00 0.00 68 1011.4
20260504011906 51 147 1.7 3.5 0.00 0.00 0.00 68 1011.5
20260504011403 51 158 0.9 2.6 0.00 0.00 0.00 69 1011.4
20260504010858 51 148 1.7 3.5 0.00 0.00 0.00 68 1011.8
20260504010354 51 148 1.7 1.7 0.00 0.00 0.00 68 1011.8
20260504005851 51 212 0.9 1.7 0.00 0.00 0.00 68 1011.7
20260504005348 51 199 0.9 2.6 0.00 0.00 0.00 68 1011.7
20260504004845 51 130 1.7 1.7 0.00 0.00 0.00 68 1011.6
20260504004343 51 203 0.9 1.7 0.00 0.00 0.00 68 1011.8
20260504003839 51 157 1.7 1.7 0.00 0.00 0.00 67 1011.6
20260504003336 51 160 0.9 1.7 0.00 0.00 0.00 68 1011.8
20260504002833 52 150 0.9 1.7 0.00 0.00 0.00 67 1011.8
20260504002330 52 178 1.7 1.7 0.00 0.00 0.00 66 1011.6
20260504001827 52 135 0.0 2.6 0.00 0.00 0.00 66 1011.7
20260504001324 52 156 0.9 0.9 0.00 0.00 0.00 64 1011.7
20260504000821 52 122 0.9 2.6 0.00 0.00 0.00 64 1011.8
20260504000318 52 160 0.9 3.5 0.00 0.00 0.00 65 1011.8
20260503235816 52 218 0.9 1.7 0.00 0.00 0.00 64 1012.1
20260503235313 52 224 0.9 2.6 0.00 0.00 0.00 64 1012.2
20260503234811 52 234 1.7 1.7 0.00 0.00 0.00 64 1011.9
20260503234308 52 233 0.9 3.5 0.00 0.00 0.00 63 1012.2
20260503233806 52 216 1.7 2.6 0.00 0.00 0.00 63 1012.4
20260503233301 53 244 5.2 6.1 0.00 0.00 0.00 62 1012.3
20260503232758 53 223 3.5 5.2 0.00 0.00 0.00 62 1012.3
20260503232256 53 214 5.2 7.8 0.00 0.00 0.00 61 1012.3
20260503231754 53 258 3.5 7.8 0.00 0.00 0.00 61 1012.2
20260503231250 53 233 4.3 8.7 0.00 0.00 0.00 61 1012.3
20260503230746 53 240 3.5 5.2 0.00 0.00 0.00 60 1012.5
20260503230244 53 228 7.0 8.7 0.00 0.00 0.00 59 1012.5
20260503225741 53 239 4.3 13.0 0.00 0.00 0.00 60 1012.5
20260503225241 54 280 7.0 8.7 0.00 0.00 0.00 60 1012.5
20260503224738 54 201 5.2 7.8 0.00 0.00 0.00 60 1012.6
20260503224236 54 225 5.2 6.1 0.00 0.00 0.00 59 1012.8
20260503223733 55 289 4.3 7.0 0.00 0.00 0.00 58 1012.7
20260503223231 55 291 5.2 7.0 0.00 0.00 0.00 57 1012.6
20260503222727 55 281 5.2 7.0 0.00 0.00 0.00 60 1012.4
20260503222225 55 274 4.3 11.3 0.00 0.00 0.00 58 1012.5
20260503221723 56 260 2.6 11.3 0.00 0.00 0.00 59 1012.4
20260503221221 57 217 7.0 8.7 0.00 0.00 0.00 55 1012.2
20260503220717 60 312 6.1 20.9 0.00 0.00 0.00 47 1012.1
20260503220214 60 286 4.3 9.6 0.00 0.00 0.00 39 1012.0
20260503215710 60 241 4.3 11.3 0.00 0.00 0.00 38 1012.0
20260503215208 60 234 1.7 7.0 0.00 0.00 0.00 38 1012.0
20260503214706 60 327 4.3 9.6 0.00 0.00 0.00 37 1012.1
20260503214202 60 219 3.5 6.1 0.00 0.00 0.00 38 1012.3
20260503213701 60 143 4.3 7.0 0.00 0.00 0.00 38 1012.2
20260503213157 60 266 4.3 7.8 0.00 0.00 0.00 36 1012.2
20260503212654 61 270 7.8 8.7 0.00 0.00 0.00 37 1012.1
20260503212152 60 251 3.5 8.7 0.00 0.00 0.00 38 1012.1
20260503211650 60 335 5.2 6.1 0.00 0.00 0.00 38 1012.0
20260503211145 60 295 2.6 7.0 0.00 0.00 0.00 38 1012.3
20260503210641 60 247 8.7 11.3 0.00 0.00 0.00 37 1012.4
20260503210138 60 243 2.6 6.1 0.00 0.00 0.00 38 1012.3
20260503205634 60 267 4.3 7.0 0.00 0.00 0.00 37 1012.3
20260503205130 60 241 3.5 13.0 0.00 0.00 0.00 38 1012.4
20260503204627 60 235 7.8 12.2 0.00 0.00 0.00 36 1012.4
20260503204125 60 225 7.0 11.3 0.00 0.00 0.00 36 1012.4
20260503203621 61 248 3.5 12.2 0.00 0.00 0.00 36 1012.6
20260503203119 61 194 5.2 6.1 0.00 0.00 0.00 36 1012.5
20260503202616 61 228 7.8 11.3 0.00 0.00 0.00 36 1012.6
20260503202114 61 221 5.2 9.6 0.00 0.00 0.00 37 1012.6
20260503201612 61 346 3.5 9.6 0.00 0.00 0.00 36 1012.7
20260503201109 61 315 3.5 11.3 0.00 0.00 0.00 36 1012.9
20260503200605 61 253 3.5 7.0 0.00 0.00 0.00 36 1013.0
20260503195559 61 248 3.5 6.1 0.00 0.00 0.00 37 1012.9
20260503195056 61 244 7.0 9.6 0.00 0.00 0.00 37 1013.3
20260503194553 61 256 7.0 9.6 0.00 0.00 0.00 34 1013.1
20260503194053 61 180 5.2 7.8 0.00 0.00 0.00 36 1013.5
20260503193550 61 226 3.5 7.0 0.00 0.00 0.00 37 1013.2
20260503193045 61 258 5.2 7.0 0.00 0.00 0.00 37 1013.3
20260503192541 61 255 7.8 11.3 0.00 0.00 0.00 35 1013.3
20260503192037 61 234 6.1 8.7 0.00 0.00 0.00 35 1013.3
20260503191534 61 222 3.5 7.0 0.00 0.00 0.00 38 1013.5
20260503191031 61 255 6.1 11.3 0.00 0.00 0.00 35 1013.5
20260503190528 61 232 7.8 12.2 0.00 0.00 0.00 36 1013.7
20260503190025 61 246 7.8 8.7 0.00 0.00 0.00 34 1013.8
20260503185521 60 223 6.1 7.8 0.00 0.00 0.00 36 1013.8
20260503185020 61 252 6.1 11.3 0.00 0.00 0.00 36 1013.9
20260503184517 61 281 5.2 7.0 0.00 0.00 0.00 37 1014.0
20260503184013 61 272 2.6 12.2 0.00 0.00 0.00 37 1014.1
20260503183510 61 228 6.1 7.8 0.00 0.00 0.00 37 1014.4
20260503183007 61 232 6.1 7.0 0.00 0.00 0.00 35 1014.1
20260503182506 61 234 5.2 7.8 0.00 0.00 0.00 37 1014.2
20260503182004 61 235 3.5 9.6 0.00 0.00 0.00 37 1014.2
20260503181500 61 221 6.1 8.7 0.00 0.00 0.00 36 1014.3
20260503180956 60 283 3.5 3.5 0.00 0.00 0.00 37 1014.4
20260503180454 61 222 6.1 9.6 0.00 0.00 0.00 35 1014.5
20260503175951 61 241 5.2 8.7 0.00 0.00 0.00 36 1014.4
20260503175449 61 216 6.1 7.0 0.00 0.00 0.00 34 1014.5
20260503174944 61 237 7.0 9.6 0.00 0.00 0.00 34 1014.7
20260503174443 60 221 5.2 8.7 0.00 0.00 0.00 34 1014.4
20260503173944 60 275 1.7 7.0 0.00 0.00 0.00 36 1014.8
20260503173440 61 255 5.2 7.0 0.00 0.00 0.00 35 1014.8
20260503172937 60 217 6.1 7.0 0.00 0.00 0.00 35 1014.7
20260503172434 60 240 4.3 9.6 0.00 0.00 0.00 36 1014.8
20260503171930 61 235 3.5 6.1 0.00 0.00 0.00 35 1014.8
20260503171427 61 274 7.0 9.6 0.00 0.00 0.00 33 1014.7
20260503170925 60 264 6.1 9.6 0.00 0.00 0.00 36 1014.9
20260503170421 60 285 7.0 7.8 0.00 0.00 0.00 36 1014.9